Location: Mexico
(19.4000°N, 99.1500°W)
Time: 07:49:40
(UTC-06:00)

ISS - Pass Details

Date: 18 September 2019
Orbit: 411 x 421 km, 51.6° (Epoch: 18 September)

Event Time Altitude Azimuth Distance (km) Brightness Sun altitude
Exits shadow 04:35:36 25° 99° (E) 869 -1.6 -26.3°
Drops below altitude 10° 04:37:22 10° 119° (ESE) 1,483 -0.4 -25.9°
Sets 04:39:33 0° 128° (SE) 2,345 0.6 -25.4°
